| time (UTC) | temp F | wind direction | speed MPH | gust MPH | rain 1hr in | rain 24hr in | rain mn in | humidity % | barometer mb |
| 20260507204533 | 60 | 152 | 5.0 | 10.0 | 0.00 | 0.00 | 0.06 | 51 | 1009.3 |
| 20260507203548 | 61 | 172 | 4.0 | 11.0 | 0.00 | 0.00 | 0.06 | 47 | 1009.2 |
| 20260507202523 | 61 | 237 | 4.0 | 11.0 | 0.00 | 0.00 | 0.06 | 46 | 1009.2 |
| 20260507201519 | 60 | 200 | 3.0 | 9.0 | 0.00 | 0.00 | 0.06 | 47 | 1009.4 |
| 20260507200614 | 61 | 170 | 4.0 | 11.0 | 0.00 | 0.00 | 0.06 | 46 | 1009.3 |
| 20260507195529 | 60 | 166 | 4.0 | 7.0 | 0.00 | 0.00 | 0.06 | 47 | 1009.2 |
| 20260507194525 | 61 | 166 | 3.0 | 8.0 | 0.00 | 0.00 | 0.06 | 46 | 1009.3 |
| 20260507193520 | 61 | 158 | 4.0 | 9.0 | 0.00 | 0.00 | 0.06 | 48 | 1009.5 |
| 20260507192516 | 60 | 162 | 5.0 | 11.0 | 0.00 | 0.00 | 0.06 | 47 | 1009.7 |
| 20260507191531 | 61 | 164 | 4.0 | 9.0 | 0.00 | 0.00 | 0.06 | 46 | 1009.8 |
| 20260507190526 | 61 | 170 | 3.0 | 8.0 | 0.00 | 0.00 | 0.06 | 45 | 1009.9 |
| 20260507185542 | 60 | 206 | 2.0 | 4.0 | 0.00 | 0.00 | 0.06 | 44 | 1010.2 |
| 20260507184517 | 61 | 253 | 2.0 | 5.0 | 0.00 | 0.00 | 0.06 | 47 | 1010.0 |
| 20260507183532 | 60 | 200 | 2.0 | 6.0 | 0.00 | 0.00 | 0.06 | 44 | 1010.2 |
| 20260507182547 | 61 | 185 | 2.0 | 5.0 | 0.00 | 0.00 | 0.06 | 43 | 1010.5 |
| 20260507181523 | 59 | 168 | 1.0 | 4.0 | 0.00 | 0.00 | 0.06 | 42 | 1010.4 |
| 20260507180518 | 61 | 186 | 3.0 | 4.0 | 0.00 | 0.00 | 0.06 | 41 | 1010.7 |
| 20260507175534 | 60 | 237 | 2.0 | 4.0 | 0.00 | 0.00 | 0.06 | 42 | 1010.7 |
| 20260507174529 | 60 | 189 | 2.0 | 5.0 | 0.00 | 0.00 | 0.06 | 42 | 1010.7 |
| 20260507173524 | 59 | 336 | 2.0 | 5.0 | 0.00 | 0.00 | 0.06 | 41 | 1011.0 |